| time (UTC) | temp F | wind direction | speed knots | gust knots | rain 1hr in | rain 24hr in | rain mn in | humidity % | barometer mb |
| 20260906183603 | 76 | 191 | 3.5 | 8.7 | 0.00 | 0.00 | 0.00 | 76 | 1015.4 |
| 20260906182703 | 76 | 187 | 1.7 | 6.1 | 0.00 | 0.00 | 0.00 | 76 | 1015.3 |
| 20260906181803 | 75 | 184 | 2.6 | 5.2 | 0.00 | 0.00 | 0.00 | 77 | 1015.4 |
| 20260906180903 | 75 | 171 | 2.6 | 7.8 | 0.00 | 0.00 | 0.00 | 79 | 1015.5 |
| 20260906180003 | 75 | 169 | 2.6 | 4.3 | 0.00 | 0.00 | 0.00 | 78 | 1015.5 |
| 20260906175403 | 75 | 183 | 2.6 | 5.2 | 0.00 | 0.00 | 0.00 | 79 | 1015.8 |
| 20260906174503 | 75 | 177 | 2.6 | 8.7 | 0.00 | 0.00 | 0.00 | 79 | 1015.8 |
| 20260906173817 | 74 | 175 | 2.6 | 7.8 | 0.00 | 0.00 | 0.00 | 79 | 1015.5 |
| 20260906172914 | 74 | 199 | 2.6 | 8.7 | 0.00 | 0.00 | 0.00 | 80 | 1015.7 |
| 20260906171803 | 74 | 171 | 2.6 | 8.7 | 0.00 | 0.00 | 0.00 | 80 | 1016.2 |
| 20260906170903 | 74 | 174 | 2.6 | 7.8 | 0.00 | 0.00 | 0.00 | 81 | 1016.1 |
| 20260906170003 | 73 | 183 | 2.6 | 5.2 | 0.00 | 0.00 | 0.00 | 83 | 1016.1 |
| 20260906165403 | 72 | 191 | 3.5 | 8.7 | 0.00 | 0.00 | 0.00 | 84 | 1016.3 |
| 20260906164503 | 72 | 188 | 2.6 | 6.1 | 0.00 | 0.00 | 0.00 | 84 | 1016.5 |
| 20260906163603 | 72 | 167 | 1.7 | 6.1 | 0.00 | 0.00 | 0.00 | 87 | 1016.4 |
| 20260906162703 | 72 | 183 | 2.6 | 7.8 | 0.00 | 0.00 | 0.00 | 88 | 1016.1 |
| 20260906162018 | 72 | 186 | 2.6 | 6.1 | 0.00 | 0.00 | 0.00 | 89 | 1016.1 |
| 20260906160903 | 72 | 188 | 2.6 | 5.2 | 0.00 | 0.00 | 0.00 | 92 | 1016.4 |
| 20260906160003 | 72 | 160 | 1.7 | 6.1 | 0.00 | 0.00 | 0.00 | 93 | 1016.2 |
| 20260906155403 | 72 | 199 | 1.7 | 3.5 | 0.00 | 0.00 | 0.00 | 95 | 1016.3 |
| 20260906154503 | 71 | 178 | 2.6 | 8.7 | 0.00 | 0.00 | 0.00 | 96 | 1016.1 |
| 20260906153603 | 70 | 186 | 2.6 | 7.8 | 0.00 | 0.00 | 0.00 | 97 | 1016.1 |
| 20260906152703 | 70 | 190 | 2.6 | 5.2 | 0.00 | 0.00 | 0.00 | 98 | 1016.3 |
| 20260906151803 | 70 | 192 | 1.7 | 3.5 | 0.00 | 0.00 | 0.00 | 99 | 1016.5 |
| 20260906150903 | 70 | 158 | 1.7 | 7.8 | 0.00 | 0.00 | 0.00 | 99 | 1016.5 |
| 20260906150003 | 69 | 165 | 1.7 | 5.2 | 0.00 | 0.00 | 0.00 | 100 | 1016.5 |
| 20260906145403 | 69 | 157 | 0.9 | 3.5 | 0.00 | 0.00 | 0.00 | 100 | 1016.5 |
| 20260906144716 | 69 | 128 | 1.7 | 3.5 | 0.00 | 0.00 | 0.00 | 100 | 1016.4 |
| 20260906143603 | 69 | 178 | 1.7 | 4.3 | 0.00 | 0.00 | 0.00 | 100 | 1016.4 |
| 20260906142704 | 69 | 142 | 1.7 | 3.5 | 0.00 | 0.00 | 0.00 | 100 | 1016.3 |
| 20260906142013 | 69 | 171 | 2.6 | 5.2 | 0.00 | 0.00 | 0.00 | 100 | 1016.3 |
| 20260906140903 | 68 | 184 | 1.7 | 3.5 | 0.00 | 0.00 | 0.00 | 100 | 1016.3 |
| 20260906140003 | 68 | 186 | 2.6 | 5.2 | 0.00 | 0.00 | 0.00 | 100 | 1016.3 |
| 20260906135403 | 68 | 182 | 2.6 | 5.2 | 0.00 | 0.00 | 0.00 | 100 | 1016.4 |
| 20260906134503 | 68 | 178 | 2.6 | 8.7 | 0.00 | 0.00 | 0.00 | 100 | 1016.4 |
| 20260906133603 | 68 | 187 | 1.7 | 4.3 | 0.00 | 0.00 | 0.00 | 100 | 1016.1 |
| 20260906132703 | 68 | 177 | 1.7 | 3.5 | 0.00 | 0.00 | 0.00 | 100 | 1016.0 |
| 20260906131803 | 68 | 189 | 0.9 | 6.1 | 0.00 | 0.00 | 0.00 | 100 | 1015.9 |
| 20260906130903 | 68 | 160 | 0.9 | 2.6 | 0.00 | 0.00 | 0.00 | 100 | 1015.6 |
| 20260906130003 | 67 | 126 | 0.9 | 2.6 | 0.00 | 0.00 | 0.00 | 100 | 1015.6 |
| 20260906125403 | 67 | 75 | 0.0 | 1.7 | 0.00 | 0.00 | 0.00 | 100 | 1015.5 |
| 20260906124503 | 67 | 106 | 0.0 | 0.9 | 0.00 | 0.00 | 0.00 | 100 | 1015.5 |
| 20260906123603 | 67 | 80 | 0.0 | 1.7 | 0.00 | 0.00 | 0.00 | 100 | 1015.4 |
| 20260906122912 | 66 | 177 | 0.0 | 0.9 | 0.00 | 0.00 | 0.00 | 99 | 1015.4 |
| 20260906121803 | 66 | 196 | 0.0 | 0.9 | 0.00 | 0.00 | 0.00 | 99 | 1015.5 |
| 20260906120903 | 66 | 161 | 0.0 | 0.9 | 0.00 | 0.00 | 0.00 | 99 | 1015.4 |
| 20260906120003 | 66 | 22 | 0.0 | 0.9 | 0.00 | 0.00 | 0.00 | 99 | 1015.4 |
| 20260906115403 | 66 | 41 | 0.0 | 0.9 | 0.00 | 0.00 | 0.00 | 99 | 1015.4 |
| 20260906114713 | 65 | 63 | 0.0 | 0.9 | 0.00 | 0.00 | 0.00 | 99 | 1015.4 |
| 20260906113816 | 65 | 76 | 0.0 | 0.9 | 0.00 | 0.00 | 0.00 | 99 | 1015.2 |
| 20260906112913 | 65 | 63 | 0.0 | 0.9 | 0.00 | 0.00 | 0.00 | 99 | 1015.2 |
| 20260906112015 | 65 | 0 | 0.0 | 0.0 | 0.00 | 0.00 | 0.00 | 98 | 1015.1 |
| 20260906110903 | 65 | 122 | 0.0 | 0.9 | 0.00 | 0.00 | 0.00 | 99 | 1015.1 |
| 20260906110003 | 65 | 0 | 0.0 | 0.0 | 0.00 | 0.00 | 0.00 | 98 | 1015.0 |
| 20260906105616 | 65 | 127 | 0.0 | 0.0 | 0.00 | 0.00 | 0.00 | 98 | 1015.0 |
| 20260906104714 | 65 | 0 | 0.0 | 0.0 | 0.00 | 0.00 | 0.00 | 98 | 1014.9 |
| 20260906103603 | 65 | 0 | 0.0 | 0.0 | 0.00 | 0.00 | 0.00 | 98 | 1014.9 |
| 20260906102703 | 66 | 0 | 0.0 | 0.0 | 0.00 | 0.00 | 0.00 | 98 | 1014.8 |
| 20260906101803 | 66 | 0 | 0.0 | 0.0 | 0.00 | 0.00 | 0.00 | 98 | 1014.9 |
| 20260906101113 | 66 | 0 | 0.0 | 0.0 | 0.00 | 0.00 | 0.00 | 98 | 1014.8 |
| 20260906100004 | 66 | 0 | 0.0 | 0.0 | 0.00 | 0.00 | 0.00 | 97 | 1014.8 |
| 20260906095403 | 66 | 124 | 0.0 | 0.0 | 0.00 | 0.00 | 0.00 | 97 | 1014.8 |
| 20260906094504 | 67 | 119 | 0.0 | 0.0 | 0.00 | 0.00 | 0.00 | 97 | 1014.5 |
| 20260906093603 | 67 | 130 | 0.0 | 1.7 | 0.00 | 0.00 | 0.00 | 97 | 1014.4 |
| 20260906092703 | 67 | 126 | 0.0 | 0.9 | 0.00 | 0.00 | 0.00 | 97 | 1014.1 |
| 20260906091803 | 67 | 340 | 0.0 | 0.9 | 0.00 | 0.00 | 0.00 | 97 | 1013.9 |
| 20260906090903 | 67 | 330 | 0.0 | 0.9 | 0.00 | 0.00 | 0.00 | 97 | 1013.9 |
| 20260906090004 | 67 | 186 | 0.0 | 0.9 | 0.00 | 0.00 | 0.00 | 97 | 1014.1 |
| 20260906085403 | 68 | 190 | 0.0 | 0.9 | 0.00 | 0.00 | 0.00 | 96 | 1014.1 |
| 20260906084715 | 68 | 229 | 0.0 | 0.9 | 0.00 | 0.00 | 0.00 | 97 | 1014.1 |
| 20260906083603 | 68 | 198 | 0.0 | 0.9 | 0.00 | 0.00 | 0.00 | 97 | 1013.9 |
| 20260906082703 | 68 | 266 | 0.0 | 0.9 | 0.00 | 0.00 | 0.00 | 96 | 1013.8 |
| 20260906081803 | 68 | 181 | 0.0 | 1.7 | 0.00 | 0.00 | 0.00 | 96 | 1013.9 |
| 20260906080903 | 69 | 178 | 0.0 | 1.7 | 0.00 | 0.00 | 0.00 | 96 | 1013.8 |
| 20260906080003 | 69 | 210 | 0.9 | 1.7 | 0.00 | 0.00 | 0.00 | 96 | 1013.8 |
| 20260906075403 | 69 | 182 | 0.9 | 2.6 | 0.00 | 0.00 | 0.00 | 96 | 1013.8 |
| 20260906074716 | 69 | 222 | 0.9 | 2.6 | 0.00 | 0.00 | 0.00 | 96 | 1013.9 |
| 20260906073813 | 69 | 335 | 0.9 | 2.6 | 0.00 | 0.00 | 0.00 | 96 | 1014.0 |
| 20260906072703 | 69 | 13 | 0.0 | 1.7 | 0.00 | 0.00 | 0.00 | 96 | 1014.2 |
| 20260906071803 | 69 | 168 | 0.0 | 0.9 | 0.00 | 0.00 | 0.00 | 96 | 1014.2 |
| 20260906070903 | 69 | 190 | 0.0 | 0.9 | 0.00 | 0.00 | 0.00 | 96 | 1014.3 |
| 20260906070003 | 69 | 0 | 0.0 | 0.0 | 0.00 | 0.00 | 0.00 | 96 | 1014.3 |
| 20260906065403 | 69 | 0 | 0.0 | 0.0 | 0.00 | 0.00 | 0.00 | 95 | 1014.3 |
| 20260906064503 | 69 | 176 | 0.0 | 0.9 | 0.00 | 0.00 | 0.00 | 95 | 1014.3 |
| 20260906063603 | 69 | 179 | 0.0 | 0.9 | 0.00 | 0.00 | 0.00 | 95 | 1014.3 |
| 20260906062703 | 69 | 179 | 0.0 | 0.0 | 0.00 | 0.00 | 0.00 | 95 | 1014.4 |
| 20260906061803 | 69 | 179 | 0.0 | 0.9 | 0.00 | 0.00 | 0.00 | 95 | 1014.5 |
| 20260906061116 | 70 | 188 | 0.0 | 0.9 | 0.00 | 0.00 | 0.00 | 95 | 1014.3 |
| 20260906060213 | 69 | 170 | 0.0 | 0.9 | 0.00 | 0.00 | 0.00 | 94 | 1014.3 |
| 20260906055403 | 69 | 180 | 0.0 | 1.7 | 0.00 | 0.00 | 0.00 | 94 | 1014.4 |
| 20260906054503 | 69 | 171 | 0.0 | 1.7 | 0.00 | 0.00 | 0.00 | 94 | 1014.5 |
| 20260906053603 | 69 | 0 | 0.0 | 0.0 | 0.00 | 0.00 | 0.00 | 93 | 1014.6 |
| 20260906052703 | 70 | 173 | 0.0 | 0.9 | 0.00 | 0.00 | 0.00 | 93 | 1014.6 |
| 20260906051803 | 70 | 60 | 0.0 | 0.9 | 0.00 | 0.00 | 0.00 | 93 | 1014.5 |
| 20260906050903 | 70 | 42 | 0.0 | 0.9 | 0.00 | 0.00 | 0.00 | 92 | 1014.6 |
| 20260906050006 | 70 | 42 | 0.0 | 0.0 | 0.00 | 0.00 | 0.00 | 92 | 1014.7 |
| 20260906045403 | 70 | 42 | 0.0 | 0.9 | 0.00 | 0.00 | 0.00 | 92 | 1014.7 |
| 20260906044503 | 70 | 42 | 0.0 | 0.0 | 0.00 | 0.00 | 0.00 | 92 | 1014.8 |
| 20260906043603 | 71 | 0 | 0.0 | 0.0 | 0.00 | 0.00 | 0.00 | 92 | 1014.8 |
| 20260906042703 | 71 | 42 | 0.0 | 0.0 | 0.00 | 0.00 | 0.00 | 92 | 1014.8 |
| 20260906042014 | 71 | 42 | 0.0 | 0.9 | 0.00 | 0.00 | 0.00 | 92 | 1014.8 |
| 20260906041117 | 71 | 45 | 0.0 | 1.7 | 0.00 | 0.00 | 0.00 | 92 | 1014.8 |
| 20260906040003 | 71 | 52 | 0.0 | 1.7 | 0.00 | 0.00 | 0.00 | 92 | 1014.8 |
| 20260906035403 | 70 | 90 | 0.0 | 0.9 | 0.00 | 0.00 | 0.00 | 92 | 1014.8 |
| 20260906034713 | 70 | 0 | 0.0 | 0.0 | 0.00 | 0.00 | 0.00 | 91 | 1014.6 |
| 20260906033603 | 70 | 0 | 0.0 | 0.0 | 0.00 | 0.00 | 0.00 | 91 | 1014.6 |
| 20260906032703 | 71 | 0 | 0.0 | 0.0 | 0.00 | 0.00 | 0.00 | 90 | 1014.5 |
| 20260906032015 | 71 | 0 | 0.0 | 0.0 | 0.00 | 0.00 | 0.00 | 90 | 1014.6 |
| 20260906031113 | 71 | 0 | 0.0 | 0.0 | 0.00 | 0.00 | 0.00 | 90 | 1014.7 |
| 20260906030003 | 71 | 0 | 0.0 | 0.0 | 0.00 | 0.00 | 0.00 | 90 | 1014.8 |
| 20260906025403 | 71 | 0 | 0.0 | 0.0 | 0.00 | 0.00 | 0.00 | 89 | 1015.0 |
| 20260906024503 | 71 | 0 | 0.0 | 0.0 | 0.00 | 0.00 | 0.00 | 89 | 1014.8 |
| 20260906023603 | 71 | 0 | 0.0 | 0.0 | 0.00 | 0.00 | 0.00 | 89 | 1014.8 |
| 20260906022703 | 71 | 0 | 0.0 | 0.0 | 0.00 | 0.00 | 0.00 | 88 | 1014.6 |
| 20260906021804 | 72 | 142 | 0.0 | 0.9 | 0.00 | 0.00 | 0.00 | 87 | 1014.4 |
| 20260906020903 | 72 | 142 | 0.0 | 0.9 | 0.00 | 0.00 | 0.00 | 86 | 1014.2 |
| 20260906020003 | 72 | 142 | 0.0 | 0.9 | 0.00 | 0.00 | 0.00 | 86 | 1013.9 |
| 20260906015403 | 72 | 214 | 0.0 | 0.0 | 0.00 | 0.00 | 0.00 | 85 | 1013.7 |
| 20260906014503 | 72 | 0 | 0.0 | 0.0 | 0.00 | 0.00 | 0.00 | 84 | 1013.5 |
| 20260906013603 | 73 | 283 | 0.0 | 0.0 | 0.00 | 0.00 | 0.00 | 83 | 1013.3 |
| 20260906012703 | 74 | 193 | 0.9 | 0.9 | 0.00 | 0.00 | 0.00 | 83 | 1013.2 |
| 20260906011803 | 74 | 168 | 0.9 | 1.7 | 0.00 | 0.00 | 0.00 | 82 | 1012.9 |
| 20260906010903 | 74 | 172 | 0.9 | 1.7 | 0.00 | 0.00 | 0.00 | 81 | 1012.9 |
| 20260906010216 | 75 | 181 | 0.9 | 2.6 | 0.00 | 0.00 | 0.00 | 81 | 1012.9 |
| 20260906005403 | 75 | 176 | 0.9 | 4.3 | 0.00 | 0.00 | 0.00 | 80 | 1012.7 |
| 20260906004503 | 76 | 169 | 0.9 | 3.5 | 0.00 | 0.00 | 0.00 | 79 | 1012.7 |
| 20260906003812 | 76 | 178 | 0.9 | 3.5 | 0.00 | 0.00 | 0.00 | 78 | 1012.7 |
| 20260906002703 | 76 | 191 | 0.9 | 4.3 | 0.00 | 0.00 | 0.00 | 76 | 1012.7 |
| 20260906001803 | 77 | 179 | 1.7 | 2.6 | 0.00 | 0.00 | 0.00 | 75 | 1012.6 |
| 20260906000903 | 77 | 194 | 1.7 | 5.2 | 0.00 | 0.00 | 0.00 | 74 | 1012.4 |
| 20260906000219 | 78 | 177 | 0.9 | 4.3 | 0.00 | 0.00 | 0.00 | 73 | 1012.4 |
| 20260905235613 | 78 | 167 | 0.9 | 4.3 | 0.00 | 0.00 | 0.00 | 72 | 1012.4 |
| 20260905234503 | 79 | 166 | 2.6 | 9.6 | 0.00 | 0.00 | 0.00 | 71 | 1012.2 |
| 20260905233813 | 79 | 167 | 1.7 | 6.1 | 0.00 | 0.00 | 0.00 | 71 | 1012.4 |
| 20260905232703 | 80 | 179 | 1.7 | 4.3 | 0.00 | 0.00 | 0.00 | 71 | 1012.4 |
| 20260905231803 | 80 | 165 | 1.7 | 4.3 | 0.00 | 0.00 | 0.00 | 70 | 1012.1 |
| 20260905230903 | 80 | 143 | 0.9 | 4.3 | 0.00 | 0.00 | 0.00 | 69 | 1012.0 |
| 20260905230003 | 80 | 106 | 1.7 | 3.5 | 0.00 | 0.00 | 0.00 | 69 | 1012.0 |
| 20260905225403 | 80 | 74 | 1.7 | 5.2 | 0.00 | 0.00 | 0.00 | 69 | 1012.0 |
| 20260905224503 | 81 | 117 | 2.6 | 7.8 | 0.00 | 0.00 | 0.00 | 68 | 1011.7 |
| 20260905223603 | 81 | 60 | 2.6 | 7.8 | 0.00 | 0.00 | 0.00 | 67 | 1011.6 |
| 20260905222703 | 82 | 94 | 2.6 | 8.7 | 0.00 | 0.00 | 0.00 | 66 | 1011.4 |
| 20260905221803 | 81 | 1 | 1.7 | 4.3 | 0.00 | 0.00 | 0.00 | 69 | 1011.4 |
| 20260905220903 | 80 | 62 | 1.7 | 5.2 | 0.00 | 0.00 | 0.00 | 70 | 1011.5 |
| 20260905220004 | 80 | 91 | 1.7 | 6.1 | 0.00 | 0.00 | 0.00 | 70 | 1011.7 |
| 20260905215615 | 80 | 67 | 1.7 | 6.1 | 0.00 | 0.00 | 0.00 | 70 | 1011.7 |
| 20260905214503 | 80 | 81 | 1.7 | 3.5 | 0.00 | 0.00 | 0.00 | 70 | 1011.8 |
| 20260905213603 | 80 | 72 | 0.9 | 5.2 | 0.00 | 0.00 | 0.00 | 70 | 1012.0 |
| 20260905212703 | 80 | 54 | 0.9 | 3.5 | 0.00 | 0.00 | 0.00 | 71 | 1012.0 |
| 20260905212014 | 80 | 59 | 1.7 | 4.3 | 0.00 | 0.00 | 0.00 | 70 | 1012.0 |
| 20260905211116 | 81 | 66 | 0.9 | 4.3 | 0.00 | 0.00 | 0.00 | 71 | 1012.0 |
| 20260905210004 | 81 | 64 | 1.7 | 5.2 | 0.00 | 0.00 | 0.00 | 70 | 1011.7 |
| 20260905205615 | 81 | 55 | 1.7 | 5.2 | 0.00 | 0.00 | 0.00 | 70 | 1011.8 |
| 20260905204503 | 81 | 71 | 1.7 | 5.2 | 0.00 | 0.00 | 0.00 | 70 | 1012.1 |
| 20260905203603 | 81 | 50 | 1.7 | 5.2 | 0.00 | 0.00 | 0.00 | 69 | 1012.1 |
| 20260905202912 | 81 | 54 | 2.6 | 5.2 | 0.00 | 0.00 | 0.00 | 69 | 1012.2 |
| 20260905201803 | 81 | 71 | 1.7 | 5.2 | 0.00 | 0.00 | 0.00 | 69 | 1012.4 |
| 20260905200903 | 81 | 55 | 1.7 | 5.2 | 0.00 | 0.00 | 0.00 | 69 | 1012.5 |
| 20260905200003 | 82 | 61 | 1.7 | 4.3 | 0.00 | 0.00 | 0.00 | 69 | 1012.9 |
| 20260905195403 | 82 | 53 | 0.9 | 2.6 | 0.00 | 0.00 | 0.00 | 69 | 1013.1 |
| 20260905194503 | 82 | 49 | 1.7 | 3.5 | 0.00 | 0.00 | 0.00 | 69 | 1013.2 |
| 20260905193603 | 82 | 69 | 2.6 | 6.1 | 0.00 | 0.00 | 0.00 | 71 | 1013.1 |
| 20260905192703 | 81 | 73 | 1.7 | 4.3 | 0.00 | 0.00 | 0.00 | 71 | 1013.1 |
| 20260905191803 | 80 | 57 | 0.9 | 2.6 | 0.00 | 0.00 | 0.00 | 73 | 1013.4 |
| 20260905190903 | 80 | 211 | 0.9 | 2.6 | 0.00 | 0.00 | 0.00 | 74 | 1013.6 |
| 20260905190003 | 80 | 199 | 1.7 | 4.3 | 0.00 | 0.00 | 0.00 | 74 | 1013.6 |
| 20260905185403 | 79 | 204 | 1.7 | 4.3 | 0.00 | 0.00 | 0.00 | 75 | 1013.6 |
| 20260905184504 | 79 | 203 | 1.7 | 3.5 | 0.00 | 0.00 | 0.00 | 75 | 1013.7 |